星链-6057 (STARLINK-6057 )

导读 | 星芒AI

STARLINK-6057 是 SpaceX Starlink 卫星互联网项目中的第 6057 颗卫星。该卫星属于星链计划的中轨道卫星群,旨在为全球用户提供高速、低延迟的互联网服务。它于近期由猎鹰 9 号火箭发射入轨,加入星链星座,提升网络覆盖和连接稳定性。该卫星采用先进通信技术,支持宽带数据传输,并具备自动避撞功能,以确保在轨安全。星链项目致力于构建全球无缝网络,尤其服务于偏远地区。

基本信息
目录编号:
56815
目录名称:
STARLINK-6057
国际标识:
2023-078BA
轨道中心:
EARTH
卫星名称:
星链-6057
卫星全名:
星链-6057 (STARLINK-6057 )
卫星状态:
已陨落 最后检测时间 2025-04-10
发射日期:
2023-05-31 UTC
国别 :
美国 (US)
星等 :
--
轨道信息
数据来源 国际轨道数据
星历时间: 2025-04-10T05:58:42+0800
轨道信息已过期208天
半长轴: 6528.927km
偏心率: 0.0008813
轨道倾角: 69.990°
近地点辐角 277.210°
升交点赤经 90.563°
平近点角 130.892°
近地点: 145.038km
远地点: 156.546km
周期: 87.503分钟
每日圈数: 16.456598
详细信息
固有亮度:
5
最大亮度:
2.5
卫星平台:
Starlink v1.5
覆盖范围:
全球
运营商:
太空探索技术公司
运营商所在国:
美国
制造商(研发单位):
太空探索技术公司
制造商所在国:
美国
使用方式:
暂无
卫星简介
星链(Starlink)计划是由太空探索技术公司(SpaceX)提出的一个巨型低轨卫星互联网星座项目,计划在2019年至2024年间在太空搭建由约1.2万颗卫星组成的“星链”网络,其中1584颗将部署在地球上空550千米处的近地轨道,并从2020年开始工作。该卫星仍在工作。